Showing default

GNOMES-4, 58462

Orbit data source: Space-Track

GNOMES-4, 58462 is a payload satellite owned by PlanetiQ (US) in SSO that was launched on Fri, 01 Dec 2023 UTC via an FALCON 9 launch vehicle from the Air Force Western Test Range (AFWTR). Payload-class satellites include a variety of spacecraft equipped with specific instruments for various scientific and technological missions. These include communications satellites like Starlink; space stations such as the ISS; scientific satellites like the Hubble; Earth observation satellites from companies like Planet Labs, Umbra, and HawkEye 360; GPS; miniature CubeSats for education and research; and military/defense satellites.

Loading next visibility...
Identifier
58462, 2023-185A
Orbit
SSO
Country
Flag of USUS
Related business
Manufacturer
Blue Canyon
Mission
Operational Commercial Communications
Bus & Motor
XSAT, Unknown motor
Mass
~30 kg wet, ~30 kg dry
Launch date (UTC)
2023-12-01 (3 years ago)
Launch vehicle
FALCON 9
Launch site
Air Force Western Test Range (AFWTR)
Object type
Payload
Rocket body
Debris
Shape & HBR
Box + 2 Pan, 0.3 m
Radar Cross Section
0.162 m², Medium (>0.1 m² and < 1m²)

Expand to show TLE details & history
Last TLE update: 1 week ago

TLE from 1 week ago
0 GNOMES-4
1 58462U 23185A   26155.28415102  .00004199  00000-0  33499-3 0  9990
2 58462  97.4855 212.9183 0011356  21.7706 338.3999 15.00770514137353
Epoch: 2026-06-04T06:49Z
TLE epoch observation values (Epoch: 2026-06-04T06:49:10.648Z)
Latitude
0.00001°
Longitude
-142.10669°
Altitude
560.25 km
Speed
7.585 km/s
True Right ascension
14h 11m 40s
True Declination
0° 00' 00"
Sunlit
Object was in full shadow at epoch
Visualization orbit readout
Latitude
Unknown
Longitude
Unknown
Altitude
Unknown
Speed
Unknown
Apparent Right ascension
Unknown
Apparent Declination
Unknown
Sunlit
N/A
Visualization observer readout
Local Sidereal Time
06:07:42
Azimuth
Unknown
Elevation
Unknown
Doppler factor
Unknown
Orbital elements
Apogee altitude
569.395 km
Perigee altitude
553.633 km
Semi-major axis
6,939.651 km
Eccentricity
0.00114
Inclination
97.4855°
RAAN
212.9183°
Arg. of periapsis
21.7706°
True anomaly
338.35193°
Mean anomaly
338.3999°
Eccentric anomaly
338.37592°
Mean motion
3.75437 °/min
Orbital period
95.89 mins
BSTAR
0.00033499
Loading maneuver chart data...
Computing Atmospheric mass density...
Loading historical data...
Loading historical data...
Loading historical data...
Loading historical data...
Loading historical data...
Loading historical data...
Loading historical data...

Documentation

Showing up to 5 results
|